Wright-Patt AFB, OH

2:17 PM EDT on May 28, 2017 (GMT -0400)
Wright-Patterson Air Force Base

Weather History for KFFO - August, 2013

Change the Weather History Date:

Thursday, August 1, 2013

  Actual Average Record
Temperature  
Mean Temperature 72 °F -  
Max Temperature 80 °F 82 °F 93 °F (2002)
Min Temperature 64 °F 61 °F 53 °F (1998)
Cooling Degree Days 7    
Growing Degree Days 22 (Base 50)    
Moisture  
Dew Point 65 °F    
Average Humidity 85    
Maximum Humidity 100    
Minimum Humidity 48    
Precipitation  
Precipitation 0.03 in - - ()
Sea Level Pressure  
Sea Level Pressure 29.96 in    
Wind  
Wind Speed 6 mph (West)    
Max Wind Speed 13 mph    
Max Gust Speed -    
Visibility 8 miles    
Events Fog , Rain    
Averages and records for this station are not official NWS values.
T = Trace of Precipitation, MM = Missing Value Source: NWS Daily Summary

Daily Weather History Graph

Daily Weather History Graph

Search for Another Location

Airport or City:

Trip Planner

Search our weather history database for the weather conditions in past years. The results will help you decide how hot, cold, wet, or windy it might be!

Date:

Astronomy

Aug. 01, 2013 Rise Set
Actual Time 6:35 AM EDT 8:49 PM EDT
Civil Twilight 6:05 AM EDT 9:19 PM EDT
Nautical Twilight 5:27 AM EDT 9:56 PM EDT
Astronomical Twilight 4:47 AM EDT 10:36 PM EDT
Moon 2:10 AM EDT (8/1) 4:57 PM EDT (8/1)
Length of Visible Light 15h 14m
Length of Day
14h 13m
Waning Crescent, 23% of the Moon is Illuminated
Aug 1
Waning Crescent
Aug 6
New
Aug 14
First Quarter
Aug 20
Full
Aug 28
Last Quarter

Hourly Weather History & Observations

Time (EDT) Temp. Heat Index Dew Point Humidity Pressure Visibility Wind Dir Wind Speed Gust Speed Precip Events Conditions
12:14 AM 69.8 °F - 68.0 °F 94% 29.96 in 6.0 mi SW 5.8 mph - N/A Rain Heavy Rain
12:24 AM 69.8 °F - 68.0 °F 94% 29.96 in 6.0 mi SW 4.6 mph - N/A Rain Light Rain
12:32 AM 69.8 °F - 68.0 °F 94% 29.96 in 6.0 mi SW 3.5 mph - N/A   Mostly Cloudy
12:35 AM 69.8 °F - 68.0 °F 94% 29.96 in 7.0 mi SW 2.3 mph - N/A   Mostly Cloudy
12:58 AM 69.1 °F - 68.2 °F 97% 29.96 in 6.0 mi SSW 4.6 mph - 0.02 in   Mostly Cloudy
1:08 AM 69.8 °F - 68.0 °F 94% 29.96 in 6.0 mi WSW 4.6 mph - N/A   Mostly Cloudy
1:58 AM 68.7 °F - 68.0 °F 98% 29.95 in 6.0 mi SW 4.6 mph - N/A   Mostly Cloudy
2:08 AM 69.8 °F - 68.0 °F 94% 29.94 in 7.0 mi SSW 4.6 mph - N/A   Mostly Cloudy
2:38 AM 69.8 °F - 68.0 °F 94% 29.93 in 8.0 mi SW 5.8 mph - N/A   Mostly Cloudy
2:58 AM 69.4 °F - 68.4 °F 96% 29.93 in 9.0 mi SW 6.9 mph - N/A   Overcast
3:28 AM 69.8 °F - 68.0 °F 94% 29.93 in 9.0 mi WSW 4.6 mph - N/A   Mostly Cloudy
3:38 AM 69.8 °F - 68.0 °F 94% 29.93 in 9.0 mi SW 3.5 mph - N/A   Scattered Clouds
3:58 AM 67.3 °F - 66.4 °F 97% 29.93 in 7.0 mi SW 3.5 mph - N/A   Partly Cloudy
4:08 AM 66.2 °F - 66.2 °F 100% 29.93 in 5.0 mi West 2.3 mph - N/A   Partly Cloudy
4:18 AM 66.2 °F - 66.2 °F 100% 29.93 in 7.0 mi WSW 2.3 mph - N/A Fog Patches of Fog
4:38 AM 68.0 °F - 66.2 °F 94% 29.94 in 6.0 mi West 5.8 mph - N/A   Mostly Cloudy
4:58 AM 67.8 °F - 66.7 °F 96% 29.94 in 8.0 mi WNW 3.5 mph - N/A   Scattered Clouds
5:32 AM 68.0 °F - 66.2 °F 94% 29.94 in 8.0 mi WNW 8.1 mph - N/A   Mostly Cloudy
5:58 AM 67.5 °F - 65.5 °F 93% 29.94 in 6.0 mi NW 5.8 mph - N/A   Scattered Clouds
6:08 AM 68.0 °F - 66.2 °F 94% 29.94 in 8.0 mi WNW 8.1 mph - N/A   Scattered Clouds
6:28 AM 66.2 °F - 66.2 °F 100% 29.95 in 2.5 mi WNW 8.1 mph - N/A   Mostly Cloudy
6:58 AM 66.9 °F - 65.1 °F 94% 29.96 in 2.5 mi NW 5.8 mph - N/A   Mostly Cloudy
7:18 AM 66.2 °F - 64.4 °F 94% 29.97 in 3.0 mi NW 8.1 mph - N/A   Overcast
7:48 AM 66.2 °F - 64.4 °F 94% 29.98 in 6.0 mi WNW 5.8 mph - N/A   Mostly Cloudy
7:58 AM 66.7 °F - 63.7 °F 90% 29.98 in 6.0 mi West 5.8 mph - 0.01 in   Mostly Cloudy
8:18 AM 66.2 °F - 64.4 °F 94% 29.99 in 10.0 mi WNW 6.9 mph - N/A   Mostly Cloudy
8:28 AM 66.2 °F - 64.4 °F 94% 29.98 in 10.0 mi WNW 11.5 mph - N/A   Mostly Cloudy
8:38 AM 66.2 °F - 64.4 °F 94% 29.98 in 10.0 mi WNW 8.1 mph - N/A   Partly Cloudy
8:58 AM 67.8 °F - 63.5 °F 86% 29.99 in 10.0 mi NW 9.2 mph - N/A   Mostly Cloudy
9:28 AM 68.0 °F - 62.6 °F 83% 29.99 in 10.0 mi NW 6.9 mph - N/A   Mostly Cloudy
9:58 AM 68.0 °F - 62.6 °F 83% 29.99 in 10.0 mi West 8.1 mph - N/A   Mostly Cloudy
10:18 AM 69.8 °F - 62.6 °F 78% 30.00 in 10.0 mi NW 6.9 mph - N/A   Overcast
10:28 AM 69.8 °F - 64.4 °F 83% 30.00 in 10.0 mi WNW 5.8 mph - N/A   Overcast
10:48 AM 69.8 °F - 62.6 °F 78% 30.00 in 10.0 mi NW 6.9 mph - N/A   Mostly Cloudy
10:58 AM 70.9 °F - 63.0 °F 76% 30.00 in 10.0 mi NW 6.9 mph - N/A   Mostly Cloudy
11:58 AM 71.2 °F - 62.8 °F 75% 30.01 in 10.0 mi WNW 8.1 mph - N/A   Mostly Cloudy
12:38 PM 73.4 °F - 64.4 °F 73% 30.00 in 10.0 mi NW 5.8 mph - N/A   Scattered Clouds
12:58 PM 72.7 °F - 63.1 °F 72% 30.01 in 10.0 mi NW 6.9 mph - N/A   Mostly Cloudy
1:28 PM 73.4 °F - 64.4 °F 73% 29.99 in 10.0 mi WSW 8.1 mph - N/A   Scattered Clouds
1:58 PM 76.3 °F - 64.6 °F 67% 29.99 in 10.0 mi West 6.9 mph - N/A   Scattered Clouds
2:58 PM 78.3 °F - 63.5 °F 60% 29.96 in 10.0 mi West 9.2 mph - N/A   Scattered Clouds
3:58 PM 79.3 °F - 60.4 °F 52% 29.96 in 10.0 mi West 5.8 mph - N/A   Partly Cloudy
4:58 PM 80.8 °F 81.3 °F 59.5 °F 48% 29.94 in 10.0 mi WSW 9.2 mph - N/A   Partly Cloudy
5:58 PM 79.3 °F - 59.0 °F 50% 29.94 in 10.0 mi WSW 12.7 mph - N/A   Partly Cloudy
6:58 PM 79.3 °F - 58.6 °F 49% 29.95 in 10.0 mi WSW 10.4 mph - N/A   Partly Cloudy
7:58 PM 76.8 °F - 60.3 °F 56% 29.94 in 10.0 mi West 10.4 mph - N/A   Mostly Cloudy
8:58 PM 72.7 °F - 62.8 °F 71% 29.96 in 10.0 mi North 4.6 mph - N/A   Clear
9:58 PM 70.2 °F - 62.6 °F 77% 29.97 in 10.0 mi Calm Calm - N/A   Clear
10:58 PM 64.8 °F - 62.2 °F 92% 29.98 in 10.0 mi SSW 3.5 mph - N/A   Partly Cloudy
11:58 PM 65.1 °F - 61.9 °F 89% 29.98 in 10.0 mi South 2.3 mph - N/A   Clear